338  
ASUS41 KBOX 241510  
RWRBOX  
 
REGIONAL WEATHER ROUNDUP  
NATIONAL WEATHER SERVICE TAUNTON MA  
1100 AM EDT SUN SEP 24 2017  
 
NOTE: "FAIR" INDICATES FEW OR NO CLOUDS BELOW 12,000 FEET WITH NO  
SIGNIFICANT WEATHER AND/OR S TO VISIBILITY
.  
 
MAZALL-241600-  
EASTERN MASSACHUSETTS  
 
CITY SKY/WX TMP DP RH WIND PRES REMARKS
 
BOSTON SUNNY 76 63 64 E5 30.06S  
BEVERLY SUNNY 80 66 62 VRB5 30.05S  
LAWRENCE SUNNY 81 67 62 CALM 30.08S  
BEDFORD SUNNY 80 63 55 CALM 30.05F  
BLUE HILL N/A 79 64 60 VRB5 30.07F  
NORWOOD SUNNY 81 67 62 CALM 30.05F  
MARSHFIELD SUNNY 79 66 65 NE5 30.05F  
PLYMOUTH SUNNY 78 63 59 VRB3 30.06S  
TAUNTON SUNNY 79 64 60 CALM 30.05F  
NEW BEDFORD SUNNY 78 63 59 NE6 30.05S  

 
 
MAZALL-241600-  
CAPE COD AND THE ISLANDS  
 
CITY SKY/WX TMP DP RH WIND PRES REMARKS
 
FALMOUTH SUNNY 75 63 64 NE8 30.07S  
HYANNIS SUNNY 76 67 73 N6 30.05R  
CHATHAM SUNNY 69 66 90 NE6 30.07R  
PROVINCETOWN SUNNY 70 65 84 NE3 30.07S  
NANTUCKET PTSUNNY 70 69 97 NE14 30.04F  
MARTHAS VNYRD SUNNY 74 65 73 NE12 30.06S  

 
 
MAZALL-241600-  
CENTRAL AND WESTERN MASSACHUSETTS  
 
CITY SKY/WX TMP DP RH WIND PRES REMARKS
 
WORCESTER SUNNY 79 62 56 E5 30.10F  
FITCHBURG SUNNY 84 64 50 NE5 30.08S  
ORANGE SUNNY 80 65 59 CALM 30.09F  
SPRINGFIELD SUNNY 80 63 54 CALM 30.06F  
WESTFIELD SUNNY 81 64 56 CALM 30.08S  
NORTH ADAMS SUNNY 74 62 66 W3 30.11F  
PITTSFIELD SUNNY 77 61 57 CALM 30.12S  

 
 
RIZALL-241600-  
RHODE ISLAND  
 
CITY SKY/WX TMP DP RH WIND PRES REMARKS
 
PROVIDENCE SUNNY 80 64 58 VRB3 30.06F  
NEWPORT SUNNY 79 64 60 N5 30.06S  
BLOCK ISLAND SUNNY 74 60 61 NE6 30.07S  
SMITHFIELD SUNNY 79 66 64 CALM 30.08S  
WESTERLY SUNNY 83 64 52 NE5 30.06S  

 
 
CTZALL-241600-  
CONNECTICUT  
 
CITY SKY/WX TMP DP RH WIND PRES REMARKS
 
BRADLEY INTL SUNNY 80 64 58 NE5 30.08F  
HARTFORD SUNNY 78 63 59 E3 30.07F  
BRIDGEPORT SUNNY 76 63 64 SW7 30.07S  
DANBURY SUNNY 83 66 56 CALM 30.10F  
GROTON SUNNY 80 66 62 S6 30.04F  
NEW HAVEN SUNNY 81 62 52 NW7 30.07S  
CHESTER FAIR 84 64 51 N5 30.07F  
MERIDEN SUNNY 81 62 52 NE3 30.07F  
WILLIMANTIC SUNNY 84 66 54 CALM 30.06F  
OXFORD SUNNY 81 65 58 VRB6 30.11S  

 
 
MEZ002-015-021-024-NHZ003-005-008-011-012-014-VTZ005-008-241600-  
NORTHERN NEW ENGLAND  
 
CITY SKY/WX TMP DP RH WIND PRES REMARKS
 
PORTLAND ME SUNNY 82 65 56 CALM 30.05F  
BANGOR ME MOSUNNY 80 65 59 VRB7 30.04F  
CONCORD NH SUNNY 80 65 59 NW5 30.08S  
MANCHESTER NH SUNNY 81 64 56 NW3 30.06S  
NASHUA NH SUNNY 80 67 64 NW3 30.08R  
PORTSMOUTH NH SUNNY 81 64 57 CALM 30.05S  
JAFFREY NH SUNNY 82 66 58 VRB3 30.11S  
KEENE NH SUNNY 80 64 58 CALM 30.10S  
BURLINGTON VT SUNNY 79 64 60 S6 30.08F  
MT. WASHINGTON MOSUNNY 61 48 63 NW25G32 N/A  

 
 
NYZ052-076-241600-  
EASTERN NEW YORK  
 
CITY SKY/WX TMP DP RH WIND PRES REMARKS
 
ALBANY SUNNY 78 63 59 NE3 30.11F  
NEW YORK CITY SUNNY 84 64 50 N5 30.07S  

 
 
ANZALL-241600-  
MARINE OBSERVATIONS  
 
STATION/POSITION TIME TEMP WIND PRES VSBY WAVE
 
AIR SEA DIR/SP/G HT/PER  
(UTC) (F) (DEG/KT/KT) (MB) (MI) (FT/S)  
BOSTON BUOY 1450 65 63 300/ 2/ 4 1017.8F 3/10  
BUZZARDS BAY 1400 69 CALM 1018.3R  
NANTUCKET SOUND 1450 61 62 40/ 6/ 8 1017.8S 1/ 5  
MASS BAY-STELLWA 1404 64 62 330/ 2/ 4 1017.4R 3/16  
ISLE OF SHOALS 1400 70 330/ 5/ 6 1017.6F  
S OF BLOCK IS NOT AVBL  

 
   
.....................KEY......................
 
 
SKY/WX - SKY CONDITION/PRESENT WEATHER  
TMP - TEMPERATURE IN FAHRENHEIT  
DWPT - DEWPOINT IN FAHRENHEIT  
RH - RELATIVE HUMIDITY IN PERCENT  
WIND - DIRECTION AND SPEED IN MPH  
PRES - MEAN SEA LEVEL PRESSURE IN INCHES OF HG  
WCI - WIND CHILL INDEX  
VSB - VISIBILITY IN MILES  
HX - HEAT INDEX  
TC - TEMPERATURE IN CELSIUS  
VRB - VARIABLE WIND DIRECTION  
N/A - NOT AVAILABLE  
 
 
CLICK HERE TO GO TO PREVIOUS BULLETINS.

The Nexlab MA Page
The Nexlab RI Page
The Nexlab NH Page
The Nexlab CT Page Main Text Page